Time,TemperatureF,DewpointF,PressureIn,WindDirection,WindDirectionDegrees,WindSpeedMPH,WindSpeedGustMPH,Humidity,HourlyPrecipIn,Conditions,Clouds,dailyrainin,SolarRadiationWatts/m^2,SoftwareType,DateUTC
2013-08-28 00:01:00,76.6,73.8,30.01,SSW,205,1.0,6.0,91,0.00,,,0.00,0.0,meteohub,2013-08-28 04:01:00,
2013-08-28 00:02:00,76.6,73.8,30.01,SW,215,0.0,6.0,91,0.00,,,0.00,0.0,meteohub,2013-08-28 04:02:00,
2013-08-28 00:03:00,76.6,73.8,30.00,SW,231,2.0,6.0,91,0.00,,,0.00,0.0,meteohub,2013-08-28 04:03:00,
2013-08-28 00:08:00,76.6,73.8,30.00,SW,229,2.0,6.0,91,0.00,,,0.00,0.0,meteohub,2013-08-28 04:08:00,
2013-08-28 00:12:00,76.6,73.8,30.00,WSW,242,0.0,6.0,91,0.00,,,0.00,0.0,meteohub,2013-08-28 04:12:00,
2013-08-28 00:15:00,76.6,74.1,30.00,WSW,254,1.0,6.0,92,0.00,,,0.00,0.0,meteohub,2013-08-28 04:15:00,
2013-08-28 00:20:00,76.6,74.1,30.00,WSW,253,1.0,5.0,92,0.00,,,0.00,0.0,meteohub,2013-08-28 04:20:00,
2013-08-28 00:26:00,76.5,73.9,30.00,WSW,252,4.0,6.0,92,0.00,,,0.00,0.0,meteohub,2013-08-28 04:26:00,
2013-08-28 00:31:00,76.5,73.9,29.99,SSW,205,2.0,6.0,92,0.00,,,0.00,0.0,meteohub,2013-08-28 04:31:00,
2013-08-28 00:36:00,76.5,73.9,29.99,WSW,241,1.0,6.0,92,0.00,,,0.00,0.0,meteohub,2013-08-28 04:36:00,
2013-08-28 00:41:00,76.5,73.9,29.99,SW,219,1.0,7.0,92,0.00,,,0.00,0.0,meteohub,2013-08-28 04:41:00,
2013-08-28 00:46:00,76.5,73.9,29.99,WSW,243,2.0,7.0,92,0.00,,,0.00,0.0,meteohub,2013-08-28 04:46:00,
2013-08-28 00:52:00,76.3,74.1,29.99,SSW,201,1.0,7.0,93,0.00,,,0.00,0.0,meteohub,2013-08-28 04:52:00,
2013-08-28 00:57:00,76.3,74.1,29.99,WSW,246,1.0,6.0,93,0.00,,,0.00,0.0,meteohub,2013-08-28 04:57:00,
2013-08-28 01:02:00,76.3,74.1,29.99,WSW,256,2.0,7.0,93,0.00,,,0.00,0.0,meteohub,2013-08-28 05:02:00,
2013-08-28 01:07:00,76.3,74.1,29.99,WSW,244,1.0,7.0,93,0.00,,,0.00,0.0,meteohub,2013-08-28 05:07:00,
2013-08-28 01:12:00,76.3,74.1,29.99,SW,221,1.0,7.0,93,0.00,,,0.00,0.0,meteohub,2013-08-28 05:12:00,
2013-08-28 01:17:00,76.3,74.1,29.99,SW,232,0.0,5.0,93,0.00,,,0.00,0.0,meteohub,2013-08-28 05:17:00,
2013-08-28 01:22:00,76.1,73.9,29.99,WNW,282,1.0,5.0,93,0.00,,,0.00,0.0,meteohub,2013-08-28 05:22:00,
2013-08-28 01:27:00,76.1,73.9,29.99,WSW,249,0.0,4.0,93,0.00,,,0.00,0.0,meteohub,2013-08-28 05:27:00,
2013-08-28 01:32:00,75.9,73.8,29.99,WSW,241,1.0,4.0,93,0.00,,,0.00,0.0,meteohub,2013-08-28 05:32:00,
2013-08-28 01:37:00,75.9,74.1,29.99,SSW,205,2.0,5.0,94,0.00,,,0.00,0.0,meteohub,2013-08-28 05:37:00,
2013-08-28 01:42:00,75.7,73.9,29.99,SSW,205,1.0,5.0,94,0.00,,,0.00,0.0,meteohub,2013-08-28 05:42:00,
2013-08-28 01:48:00,75.7,73.9,29.99,WSW,244,2.0,5.0,94,0.00,,,0.00,0.0,meteohub,2013-08-28 05:48:00,
2013-08-28 01:53:00,75.6,73.8,29.99,West,271,1.0,4.0,94,0.00,,,0.00,0.0,meteohub,2013-08-28 05:53:00,
2013-08-28 01:58:00,75.6,73.8,29.99,West,262,0.0,4.0,94,0.00,,,0.00,0.0,meteohub,2013-08-28 05:58:00,
2013-08-28 02:03:00,75.6,73.8,29.99,West,262,0.0,4.0,94,0.00,,,0.00,0.0,meteohub,2013-08-28 06:03:00,
2013-08-28 02:08:00,75.4,73.6,29.98,West,263,1.0,3.0,94,0.00,,,0.00,0.0,meteohub,2013-08-28 06:08:00,
2013-08-28 02:13:00,75.2,73.4,29.98,SW,235,0.0,2.0,94,0.00,,,0.00,0.0,meteohub,2013-08-28 06:13:00,
2013-08-28 02:18:00,75.0,73.4,29.98,WSW,255,2.0,5.0,95,0.00,,,0.00,0.0,meteohub,2013-08-28 06:18:00,
2013-08-28 02:23:00,75.0,73.2,29.98,West,281,0.0,5.0,94,0.00,,,0.00,0.0,meteohub,2013-08-28 06:23:00,
2013-08-28 02:28:00,74.8,73.2,29.98,SW,227,2.0,5.0,95,0.00,,,0.00,0.0,meteohub,2013-08-28 06:28:00,
2013-08-28 02:33:00,74.8,73.2,29.98,SW,215,2.0,6.0,95,0.00,,,0.00,0.0,meteohub,2013-08-28 06:33:00,
2013-08-28 02:38:00,74.7,73.2,29.98,WSW,250,3.0,6.0,95,0.00,,,0.00,0.0,meteohub,2013-08-28 06:38:00,
2013-08-28 02:44:00,74.7,73.2,29.98,SW,234,0.0,6.0,95,0.00,,,0.00,0.0,meteohub,2013-08-28 06:44:00,
2013-08-28 02:49:00,74.7,73.2,29.97,West,263,0.0,5.0,95,0.00,,,0.00,0.0,meteohub,2013-08-28 06:49:00,
2013-08-28 02:54:00,74.5,73.0,29.97,WSW,250,1.0,5.0,95,0.00,,,0.00,0.0,meteohub,2013-08-28 06:54:00,
2013-08-28 02:59:00,74.5,73.2,29.97,SW,228,1.0,4.0,96,0.00,,,0.00,0.0,meteohub,2013-08-28 06:59:00,
2013-08-28 03:04:00,74.3,72.9,29.97,WSW,251,2.0,4.0,95,0.00,,,0.00,0.0,meteohub,2013-08-28 07:04:00,
2013-08-28 03:09:00,74.3,73.0,29.97,WSW,244,0.0,4.0,96,0.00,,,0.00,0.0,meteohub,2013-08-28 07:09:00,
2013-08-28 03:14:00,74.3,73.0,29.97,WNW,284,1.0,5.0,96,0.00,,,0.00,0.0,meteohub,2013-08-28 07:14:00,
2013-08-28 03:19:00,74.3,73.0,29.97,WSW,254,1.0,5.0,96,0.00,,,0.00,0.0,meteohub,2013-08-28 07:19:00,
2013-08-28 03:24:00,74.1,72.9,29.97,WNW,288,0.0,5.0,96,0.00,,,0.00,0.0,meteohub,2013-08-28 07:24:00,
2013-08-28 03:29:00,74.1,72.9,29.98,WSW,251,0.0,5.0,96,0.00,,,0.00,0.0,meteohub,2013-08-28 07:29:00,
2013-08-28 03:34:00,74.1,72.9,29.97,WSW,238,1.0,5.0,96,0.00,,,0.00,0.0,meteohub,2013-08-28 07:34:00,
2013-08-28 03:39:00,74.1,72.9,29.98,WSW,238,0.0,5.0,96,0.00,,,0.00,0.0,meteohub,2013-08-28 07:39:00,
2013-08-28 03:44:00,73.9,72.7,29.98,WSW,255,1.0,5.0,96,0.00,,,0.00,0.0,meteohub,2013-08-28 07:44:00,
2013-08-28 03:49:00,73.9,72.7,29.98,West,259,1.0,3.0,96,0.00,,,0.00,0.0,meteohub,2013-08-28 07:49:00,
2013-08-28 03:54:00,73.9,72.7,29.98,SW,221,0.0,4.0,96,0.00,,,0.00,0.0,meteohub,2013-08-28 07:54:00,
2013-08-28 03:59:00,73.9,72.7,29.98,WNW,287,3.0,4.0,96,0.00,,,0.00,0.0,meteohub,2013-08-28 07:59:00,
2013-08-28 04:05:00,73.8,72.5,29.98,WSW,252,0.0,4.0,96,0.00,,,0.00,0.0,meteohub,2013-08-28 08:05:00,
2013-08-28 04:10:00,73.8,72.5,29.98,WNW,293,0.0,3.0,96,0.00,,,0.00,0.0,meteohub,2013-08-28 08:10:00,
2013-08-28 04:15:00,73.8,72.5,29.97,West,262,2.0,3.0,96,0.00,,,0.00,0.0,meteohub,2013-08-28 08:15:00,
2013-08-28 04:20:00,73.8,72.5,29.97,West,267,1.0,3.0,96,0.00,,,0.00,0.0,meteohub,2013-08-28 08:20:00,
2013-08-28 04:25:00,73.8,72.5,29.97,WSW,255,1.0,4.0,96,0.00,,,0.00,0.0,meteohub,2013-08-28 08:25:00,
2013-08-28 04:30:00,73.6,72.3,29.98,NW,308,2.0,4.0,96,0.00,,,0.00,0.0,meteohub,2013-08-28 08:30:00,
2013-08-28 04:35:00,73.6,72.3,29.98,NW,321,1.0,4.0,96,0.00,,,0.00,0.0,meteohub,2013-08-28 08:35:00,
2013-08-28 04:40:00,73.6,72.3,29.98,West,281,1.0,4.0,96,0.00,,,0.00,0.0,meteohub,2013-08-28 08:40:00,
2013-08-28 04:45:00,73.4,72.1,29.98,West,281,0.0,3.0,96,0.00,,,0.00,0.0,meteohub,2013-08-28 08:45:00,
2013-08-28 04:50:00,73.2,72.0,29.98,West,281,1.0,3.0,96,0.00,,,0.00,0.0,meteohub,2013-08-28 08:50:00,
2013-08-28 04:55:00,73.2,72.3,29.98,WNW,294,2.0,3.0,97,0.00,,,0.00,0.0,meteohub,2013-08-28 08:55:00,
2013-08-28 05:00:00,73.2,72.3,29.98,WNW,293,0.0,3.0,97,0.00,,,0.00,0.0,meteohub,2013-08-28 09:00:00,
2013-08-28 05:05:00,73.0,72.1,29.98,West,279,1.0,3.0,97,0.00,,,0.00,0.0,meteohub,2013-08-28 09:05:00,
2013-08-28 05:10:00,73.0,72.1,29.98,NW,317,1.0,3.0,97,0.00,,,0.00,0.0,meteohub,2013-08-28 09:10:00,
2013-08-28 05:15:00,73.0,71.8,29.98,NW,317,0.0,3.0,96,0.00,,,0.00,0.0,meteohub,2013-08-28 09:15:00,
2013-08-28 05:21:00,72.9,71.6,29.99,West,281,0.0,3.0,96,0.00,,,0.00,0.0,meteohub,2013-08-28 09:21:00,
2013-08-28 05:26:00,72.9,72.0,29.99,West,281,1.0,2.0,97,0.00,,,0.00,0.0,meteohub,2013-08-28 09:26:00,
2013-08-28 05:31:00,72.7,71.8,29.99,WSW,250,0.0,2.0,97,0.00,,,0.00,0.0,meteohub,2013-08-28 09:31:00,
2013-08-28 05:35:00,72.7,71.8,29.99,WSW,250,0.0,2.0,97,0.00,,,0.00,0.0,meteohub,2013-08-28 09:35:00,
2013-08-28 05:40:00,72.7,71.8,29.98,WSW,251,0.0,3.0,97,0.00,,,0.00,0.0,meteohub,2013-08-28 09:40:00,
2013-08-28 05:45:00,72.5,71.6,29.98,WSW,251,0.0,3.0,97,0.00,,,0.00,0.0,meteohub,2013-08-28 09:45:00,
2013-08-28 05:50:00,72.5,71.6,29.98,West,277,0.0,1.0,97,0.00,,,0.00,0.0,meteohub,2013-08-28 09:50:00,
2013-08-28 05:55:00,72.5,71.6,29.98,WSW,253,0.0,3.0,97,0.00,,,0.00,0.0,meteohub,2013-08-28 09:55:00,
2013-08-28 06:00:00,72.5,71.6,29.98,WSW,253,0.0,5.0,97,0.00,,,0.00,0.0,meteohub,2013-08-28 10:00:00,
2013-08-28 06:05:00,72.5,71.6,29.99,WSW,253,0.0,5.0,97,0.00,,,0.00,0.0,meteohub,2013-08-28 10:05:00,
2013-08-28 06:10:00,72.3,71.4,29.98,WSW,253,0.0,2.0,97,0.00,,,0.00,0.0,meteohub,2013-08-28 10:10:00,
2013-08-28 06:15:00,72.3,71.4,29.98,WSW,253,0.0,2.0,97,0.00,,,0.00,0.0,meteohub,2013-08-28 10:15:00,
2013-08-28 06:20:00,72.1,71.2,29.98,WSW,253,0.0,2.0,97,0.00,,,0.00,0.0,meteohub,2013-08-28 10:20:00,
2013-08-28 06:25:00,72.1,71.2,29.98,WSW,253,0.0,1.0,97,0.00,,,0.00,0.0,meteohub,2013-08-28 10:25:00,
2013-08-28 06:30:00,72.0,71.1,29.98,West,262,0.0,3.0,97,0.00,,,0.00,0.0,meteohub,2013-08-28 10:30:00,
2013-08-28 06:36:00,72.0,71.4,29.99,West,262,0.0,3.0,98,0.00,,,0.00,0.0,meteohub,2013-08-28 10:36:00,
2013-08-28 06:41:00,72.0,71.4,29.99,West,262,0.0,3.0,98,0.00,,,0.00,0.0,meteohub,2013-08-28 10:41:00,
2013-08-28 06:46:00,72.0,71.4,29.99,West,262,1.0,2.0,98,0.00,,,0.00,0.0,meteohub,2013-08-28 10:46:00,
2013-08-28 06:51:00,71.8,71.2,29.99,West,262,0.0,2.0,98,0.00,,,0.00,0.0,meteohub,2013-08-28 10:51:00,
2013-08-28 06:56:00,71.8,70.9,29.99,West,262,0.0,2.0,97,0.00,,,0.00,0.0,meteohub,2013-08-28 10:56:00,
2013-08-28 07:01:00,71.8,71.2,29.99,West,277,0.0,2.0,98,0.00,,,0.00,0.0,meteohub,2013-08-28 11:01:00,
2013-08-28 07:06:00,71.8,71.2,29.99,SSW,205,0.0,4.0,98,0.00,,,0.00,0.0,meteohub,2013-08-28 11:06:00,
2013-08-28 07:11:00,71.8,71.2,29.99,West,259,0.0,4.0,98,0.00,,,0.00,5.0,meteohub,2013-08-28 11:11:00,
2013-08-28 07:16:00,71.8,71.2,29.99,WSW,242,3.0,4.0,98,0.00,,,0.00,9.0,meteohub,2013-08-28 11:16:00,
2013-08-28 07:21:00,71.8,71.2,29.99,West,271,0.0,4.0,98,0.00,,,0.00,12.0,meteohub,2013-08-28 11:21:00,
2013-08-28 07:26:00,72.0,71.4,29.99,SSW,200,2.0,4.0,98,0.00,,,0.00,19.0,meteohub,2013-08-28 11:26:00,
2013-08-28 07:31:00,72.0,71.4,29.99,WSW,239,4.0,5.0,98,0.00,,,0.00,25.0,meteohub,2013-08-28 11:31:00,
2013-08-28 07:36:00,72.0,71.4,29.99,West,275,0.0,5.0,98,0.00,,,0.00,26.0,meteohub,2013-08-28 11:36:00,
2013-08-28 07:41:00,72.0,71.4,29.99,WNW,290,0.0,5.0,98,0.00,,,0.00,32.0,meteohub,2013-08-28 11:41:00,
2013-08-28 07:46:00,72.0,71.4,29.99,SSW,193,4.0,4.0,98,0.00,,,0.00,37.0,meteohub,2013-08-28 11:46:00,
2013-08-28 07:51:00,72.0,71.4,29.99,WSW,244,0.0,4.0,98,0.00,,,0.00,44.0,meteohub,2013-08-28 11:51:00,
2013-08-28 07:57:00,72.1,71.6,29.99,SW,219,0.0,4.0,98,0.00,,,0.00,54.0,meteohub,2013-08-28 11:57:00,
2013-08-28 08:02:00,72.1,71.6,29.99,WSW,244,2.0,6.0,98,0.00,,,0.00,62.0,meteohub,2013-08-28 12:02:00,
2013-08-28 08:07:00,72.1,71.6,29.98,SW,215,3.0,6.0,98,0.00,,,0.00,67.0,meteohub,2013-08-28 12:07:00,
2013-08-28 08:12:00,72.3,71.8,29.98,WSW,247,0.0,6.0,98,0.00,,,0.00,81.0,meteohub,2013-08-28 12:12:00,
2013-08-28 08:17:00,72.3,71.8,29.98,WNW,287,0.0,4.0,98,0.00,,,0.00,79.0,meteohub,2013-08-28 12:17:00,
2013-08-28 08:22:00,72.5,72.0,29.98,WSW,254,0.0,4.0,98,0.00,,,0.00,90.0,meteohub,2013-08-28 12:22:00,
2013-08-28 08:27:00,72.7,72.1,29.97,West,279,2.0,6.0,98,0.00,,,0.00,91.0,meteohub,2013-08-28 12:27:00,
2013-08-28 08:32:00,72.7,72.1,29.97,WNW,284,1.0,6.0,98,0.00,,,0.00,120.0,meteohub,2013-08-28 12:32:00,
2013-08-28 08:37:00,72.9,72.3,29.97,West,259,4.0,6.0,98,0.00,,,0.00,141.0,meteohub,2013-08-28 12:37:00,
2013-08-28 08:42:00,73.0,72.5,29.97,WSW,238,4.0,7.0,98,0.00,,,0.00,192.0,meteohub,2013-08-28 12:42:00,
2013-08-28 08:47:00,73.4,72.9,29.97,SW,236,5.0,7.0,98,0.00,,,0.00,132.0,meteohub,2013-08-28 12:47:00,
2013-08-28 08:52:00,73.6,72.7,29.97,SW,234,2.0,7.0,97,0.00,,,0.00,127.0,meteohub,2013-08-28 12:52:00,
2013-08-28 08:57:00,73.8,72.5,29.97,WSW,243,4.0,7.0,96,0.00,,,0.00,135.0,meteohub,2013-08-28 12:57:00,
2013-08-28 09:02:00,73.9,72.7,29.97,WNW,284,3.0,8.0,96,0.00,,,0.00,155.0,meteohub,2013-08-28 13:02:00,
2013-08-28 09:08:00,74.1,72.9,29.96,WSW,249,2.0,8.0,96,0.00,,,0.00,200.0,meteohub,2013-08-28 13:08:00,
2013-08-28 09:13:00,74.5,73.2,29.96,West,267,2.0,8.0,96,0.00,,,0.00,260.0,meteohub,2013-08-28 13:13:00,
2013-08-28 09:18:00,74.8,73.2,29.96,West,281,1.0,8.0,95,0.00,,,0.00,204.0,meteohub,2013-08-28 13:18:00,
2013-08-28 09:23:00,75.2,73.4,29.96,NW,305,2.0,8.0,94,0.00,,,0.00,206.0,meteohub,2013-08-28 13:23:00,
2013-08-28 09:28:00,75.6,73.4,29.96,West,276,0.0,10.0,93,0.00,,,0.00,207.0,meteohub,2013-08-28 13:28:00,
2013-08-28 09:33:00,75.7,73.2,29.96,SW,223,1.0,10.0,92,0.00,,,0.00,221.0,meteohub,2013-08-28 13:33:00,
2013-08-28 09:38:00,75.9,73.4,29.96,West,265,4.0,9.0,92,0.00,,,0.00,253.0,meteohub,2013-08-28 13:38:00,
2013-08-28 09:43:00,76.3,73.4,29.96,WSW,240,5.0,9.0,91,0.00,,,0.00,260.0,meteohub,2013-08-28 13:43:00,
2013-08-28 09:48:00,76.5,73.6,29.96,NW,308,2.0,9.0,91,0.00,,,0.00,246.0,meteohub,2013-08-28 13:48:00,
2013-08-28 09:53:00,76.6,73.4,29.96,NW,304,2.0,9.0,90,0.00,,,0.00,255.0,meteohub,2013-08-28 13:53:00,
2013-08-28 09:58:00,77.2,73.9,29.96,WSW,255,4.0,9.0,90,0.00,,,0.00,353.0,meteohub,2013-08-28 13:58:00,
2013-08-28 10:03:00,77.5,74.1,29.96,WNW,286,2.0,8.0,89,0.00,,,0.00,464.0,meteohub,2013-08-28 14:03:00,
2013-08-28 10:08:00,78.3,74.7,29.96,West,279,3.0,10.0,89,0.00,,,0.00,385.0,meteohub,2013-08-28 14:08:00,
2013-08-28 10:13:00,79.0,74.5,29.96,West,277,3.0,10.0,86,0.00,,,0.00,459.0,meteohub,2013-08-28 14:13:00,
2013-08-28 10:18:00,79.3,74.5,29.96,SW,235,5.0,10.0,85,0.00,,,0.00,371.0,meteohub,2013-08-28 14:18:00,
2013-08-28 10:23:00,79.5,73.9,29.96,West,266,4.0,9.0,83,0.00,,,0.00,359.0,meteohub,2013-08-28 14:23:00,
2013-08-28 10:29:00,79.5,74.3,29.96,SW,227,4.0,9.0,84,0.00,,,0.00,292.0,meteohub,2013-08-28 14:29:00,
2013-08-28 10:34:00,79.3,73.8,29.96,West,261,6.0,10.0,83,0.00,,,0.00,373.0,meteohub,2013-08-28 14:34:00,
2013-08-28 10:39:00,79.5,74.3,29.96,West,267,4.0,10.0,84,0.00,,,0.00,420.0,meteohub,2013-08-28 14:39:00,
2013-08-28 10:44:00,80.2,75.0,29.96,NW,311,2.0,10.0,84,0.00,,,0.00,536.0,meteohub,2013-08-28 14:44:00,
2013-08-28 10:49:00,81.1,75.2,29.96,West,267,4.0,9.0,82,0.00,,,0.00,635.0,meteohub,2013-08-28 14:49:00,
2013-08-28 10:54:00,81.9,74.7,29.96,West,280,2.0,9.0,79,0.00,,,0.00,327.0,meteohub,2013-08-28 14:54:00,
2013-08-28 10:59:00,81.7,74.5,29.96,West,264,2.0,9.0,79,0.00,,,0.00,318.0,meteohub,2013-08-28 14:59:00,
2013-08-28 11:04:00,81.3,74.1,29.96,West,271,2.0,8.0,79,0.00,,,0.00,295.0,meteohub,2013-08-28 15:04:00,
2013-08-28 11:09:00,81.7,74.1,29.95,SW,219,4.0,9.0,78,0.00,,,0.00,325.0,meteohub,2013-08-28 15:09:00,
2013-08-28 11:14:00,82.0,74.5,29.96,NW,311,3.0,9.0,78,0.00,,,0.00,299.0,meteohub,2013-08-28 15:14:00,
2013-08-28 11:19:00,82.0,74.1,29.96,SW,224,5.0,11.0,77,0.00,,,0.00,373.0,meteohub,2013-08-28 15:19:00,
2013-08-28 11:24:00,82.4,74.1,29.96,WSW,255,1.0,11.0,76,0.00,,,0.00,346.0,meteohub,2013-08-28 15:24:00,
2013-08-28 11:29:00,82.4,74.5,29.96,NW,308,5.0,11.0,77,0.00,,,0.00,316.0,meteohub,2013-08-28 15:29:00,
2013-08-28 11:35:00,82.4,74.1,29.96,SSW,205,6.0,8.0,76,0.00,,,0.00,359.0,meteohub,2013-08-28 15:35:00,
2013-08-28 11:40:00,82.6,73.8,29.95,West,267,5.0,9.0,75,0.00,,,0.00,346.0,meteohub,2013-08-28 15:40:00,
2013-08-28 11:45:00,82.6,73.8,29.95,SW,232,5.0,9.0,75,0.00,,,0.00,325.0,meteohub,2013-08-28 15:45:00,
2013-08-28 11:50:00,82.6,74.3,29.95,WSW,255,3.0,9.0,76,0.00,,,0.00,338.0,meteohub,2013-08-28 15:50:00,
2013-08-28 11:55:00,82.9,75.0,29.95,NW,308,3.0,9.0,77,0.00,,,0.00,323.0,meteohub,2013-08-28 15:55:00,
2013-08-28 12:00:00,83.1,73.9,29.95,NW,312,3.0,9.0,74,0.00,,,0.00,301.0,meteohub,2013-08-28 16:00:00,
2013-08-28 12:05:00,82.9,73.4,29.96,West,271,4.0,11.0,73,0.00,,,0.00,276.0,meteohub,2013-08-28 16:05:00,
2013-08-28 12:10:00,82.9,73.4,29.96,West,276,2.0,11.0,73,0.00,,,0.00,274.0,meteohub,2013-08-28 16:10:00,
2013-08-28 12:15:00,82.9,73.8,29.96,WSW,252,5.0,11.0,74,0.00,,,0.00,272.0,meteohub,2013-08-28 16:15:00,
2013-08-28 12:20:00,82.8,73.9,29.96,West,269,3.0,9.0,75,0.00,,,0.00,264.0,meteohub,2013-08-28 16:20:00,
2013-08-28 12:25:00,83.1,74.3,29.95,WNW,285,1.0,8.0,75,0.00,,,0.00,253.0,meteohub,2013-08-28 16:25:00,
2013-08-28 12:31:00,83.5,74.7,29.95,West,262,3.0,8.0,75,0.00,,,0.00,258.0,meteohub,2013-08-28 16:31:00,
2013-08-28 12:36:00,83.5,74.7,29.95,West,263,3.0,7.0,75,0.00,,,0.00,278.0,meteohub,2013-08-28 16:36:00,
2013-08-28 12:41:00,83.7,74.8,29.95,WSW,247,4.0,7.0,75,0.00,,,0.00,297.0,meteohub,2013-08-28 16:41:00,
2013-08-28 12:46:00,83.8,75.4,29.95,WSW,246,8.0,8.0,76,0.00,,,0.00,327.0,meteohub,2013-08-28 16:46:00,
2013-08-28 12:51:00,84.0,74.8,29.95,West,268,5.0,9.0,74,0.00,,,0.00,383.0,meteohub,2013-08-28 16:51:00,
2013-08-28 12:56:00,84.6,75.0,29.95,West,260,5.0,9.0,73,0.00,,,0.00,420.0,meteohub,2013-08-28 16:56:00,
2013-08-28 13:01:00,85.5,73.8,29.94,WSW,252,7.0,9.0,68,0.00,,,0.00,415.0,meteohub,2013-08-28 17:01:00,
2013-08-28 13:07:00,85.6,74.3,29.94,West,259,2.0,9.0,69,0.00,,,0.00,374.0,meteohub,2013-08-28 17:07:00,
2013-08-28 13:12:00,85.6,75.6,29.94,NW,316,1.0,10.0,72,0.00,,,0.00,541.0,meteohub,2013-08-28 17:12:00,
2013-08-28 13:17:00,85.8,76.1,29.94,West,260,1.0,10.0,73,0.00,,,0.00,427.0,meteohub,2013-08-28 17:17:00,
2013-08-28 13:22:00,86.0,76.3,29.94,SW,227,2.0,10.0,73,0.00,,,0.00,492.0,meteohub,2013-08-28 17:22:00,
2013-08-28 13:27:00,85.6,75.6,29.94,WNW,290,6.0,8.0,72,0.00,,,0.00,355.0,meteohub,2013-08-28 17:27:00,
2013-08-28 13:32:00,85.3,74.8,29.93,WSW,237,7.0,9.0,71,0.00,,,0.00,381.0,meteohub,2013-08-28 17:32:00,
2013-08-28 13:37:00,86.7,75.7,29.93,West,267,8.0,9.0,70,0.00,,,0.00,914.0,meteohub,2013-08-28 17:37:00,
2013-08-28 13:42:00,88.2,76.3,29.92,NNW,330,2.0,11.0,68,0.00,,,0.00,884.0,meteohub,2013-08-28 17:42:00,
2013-08-28 13:47:00,88.9,74.1,29.92,WSW,240,3.0,12.0,62,0.00,,,0.00,884.0,meteohub,2013-08-28 17:47:00,
2013-08-28 13:53:00,88.3,74.7,29.92,South,186,5.0,13.0,64,0.00,,,0.00,615.0,meteohub,2013-08-28 17:53:00,
2013-08-28 13:58:00,88.9,76.1,29.92,SSE,154,1.0,13.0,66,0.00,,,0.00,577.0,meteohub,2013-08-28 17:58:00,
2013-08-28 14:03:00,88.5,74.3,29.92,WNW,288,7.0,13.0,63,0.00,,,0.00,510.0,meteohub,2013-08-28 18:03:00,
2013-08-28 14:08:00,88.5,74.8,29.92,SW,232,8.0,14.0,64,0.00,,,0.00,561.0,meteohub,2013-08-28 18:08:00,
2013-08-28 14:13:00,89.1,73.9,29.92,WSW,246,3.0,14.0,61,0.00,,,0.00,575.0,meteohub,2013-08-28 18:13:00,
2013-08-28 14:18:00,89.6,74.3,29.92,WSW,239,3.0,14.0,61,0.00,,,0.00,1060.0,meteohub,2013-08-28 18:18:00,
2013-08-28 14:23:00,90.0,73.8,29.92,WNW,282,3.0,13.0,59,0.00,,,0.00,960.0,meteohub,2013-08-28 18:23:00,
2013-08-28 14:28:00,89.6,73.4,29.92,NW,307,2.0,13.0,59,0.00,,,0.00,494.0,meteohub,2013-08-28 18:28:00,
2013-08-28 14:33:00,89.1,73.4,29.92,WSW,248,1.0,13.0,60,0.00,,,0.00,415.0,meteohub,2013-08-28 18:33:00,
2013-08-28 14:38:00,88.9,73.8,29.92,SW,225,6.0,13.0,61,0.00,,,0.00,578.0,meteohub,2013-08-28 18:38:00,
2013-08-28 14:43:00,88.9,73.8,29.92,SW,219,4.0,13.0,61,0.00,,,0.00,800.0,meteohub,2013-08-28 18:43:00,
2013-08-28 14:49:00,89.8,74.1,29.92,South,169,6.0,12.0,60,0.00,,,0.00,793.0,meteohub,2013-08-28 18:49:00,
2013-08-28 14:54:00,90.0,74.1,29.91,SW,215,4.0,12.0,60,0.00,,,0.00,763.0,meteohub,2013-08-28 18:54:00,
2013-08-28 14:59:00,90.0,73.8,29.91,NW,313,4.0,12.0,59,0.00,,,0.00,362.0,meteohub,2013-08-28 18:59:00,
2013-08-28 15:04:00,90.5,74.1,29.91,WNW,295,5.0,11.0,59,0.00,,,0.00,773.0,meteohub,2013-08-28 19:04:00,
2013-08-28 15:09:00,90.9,72.5,29.91,WNW,286,7.0,14.0,55,0.00,,,0.00,775.0,meteohub,2013-08-28 19:09:00,
2013-08-28 15:14:00,91.8,73.2,29.91,WSW,250,5.0,14.0,55,0.00,,,0.00,803.0,meteohub,2013-08-28 19:14:00,
2013-08-28 15:19:00,90.3,72.0,29.91,WSW,246,12.0,14.0,55,0.00,,,0.00,283.0,meteohub,2013-08-28 19:19:00,
2013-08-28 15:24:00,90.3,72.5,29.90,WNW,291,9.0,14.0,56,0.00,,,0.00,717.0,meteohub,2013-08-28 19:24:00,
2013-08-28 15:30:00,90.7,72.3,29.90,SW,223,8.0,12.0,55,0.00,,,0.00,680.0,meteohub,2013-08-28 19:30:00,
2013-08-28 15:35:00,91.0,72.7,29.90,WNW,294,2.0,13.0,55,0.00,,,0.00,689.0,meteohub,2013-08-28 19:35:00,
2013-08-28 15:40:00,91.2,72.9,29.90,WSW,251,6.0,13.0,55,0.00,,,0.00,689.0,meteohub,2013-08-28 19:40:00,
2013-08-28 15:45:00,91.2,71.6,29.90,NNW,328,9.0,14.0,53,0.00,,,0.00,679.0,meteohub,2013-08-28 19:45:00,
2013-08-28 15:50:00,91.2,72.9,29.90,WNW,299,5.0,14.0,55,0.00,,,0.00,693.0,meteohub,2013-08-28 19:50:00,
2013-08-28 15:55:00,91.8,73.2,29.90,West,271,10.0,13.0,55,0.00,,,0.00,696.0,meteohub,2013-08-28 19:55:00,
2013-08-28 16:00:00,91.6,72.5,29.90,WSW,250,7.0,13.0,54,0.00,,,0.00,223.0,meteohub,2013-08-28 20:00:00,
2013-08-28 16:05:00,90.9,71.4,29.89,WNW,302,7.0,15.0,53,0.00,,,0.00,267.0,meteohub,2013-08-28 20:05:00,
2013-08-28 16:11:00,90.7,71.8,29.90,West,276,7.0,15.0,54,0.00,,,0.00,432.0,meteohub,2013-08-28 20:11:00,
2013-08-28 16:16:00,90.7,71.8,29.89,West,268,3.0,15.0,54,0.00,,,0.00,244.0,meteohub,2013-08-28 20:16:00,
2013-08-28 16:21:00,90.3,72.5,29.89,West,264,5.0,13.0,56,0.00,,,0.00,359.0,meteohub,2013-08-28 20:21:00,
2013-08-28 16:26:00,90.0,71.6,29.89,West,277,5.0,13.0,55,0.00,,,0.00,323.0,meteohub,2013-08-28 20:26:00,
2013-08-28 16:31:00,90.7,72.3,29.89,WSW,258,4.0,14.0,55,0.00,,,0.00,719.0,meteohub,2013-08-28 20:31:00,
2013-08-28 16:36:00,91.4,70.7,29.89,WNW,295,8.0,14.0,51,0.00,,,0.00,216.0,meteohub,2013-08-28 20:36:00,
2013-08-28 16:41:00,90.1,71.2,29.89,NW,304,7.0,14.0,54,0.00,,,0.00,197.0,meteohub,2013-08-28 20:41:00,
2013-08-28 16:46:00,90.3,72.0,29.89,West,270,7.0,14.0,55,0.00,,,0.00,584.0,meteohub,2013-08-28 20:46:00,
2013-08-28 16:51:00,91.0,71.6,29.89,WSW,250,4.0,14.0,53,0.00,,,0.00,538.0,meteohub,2013-08-28 20:51:00,
2013-08-28 16:56:00,91.2,71.1,29.89,WNW,294,6.0,11.0,52,0.00,,,0.00,478.0,meteohub,2013-08-28 20:56:00,
2013-08-28 17:02:00,91.0,71.6,29.88,NW,310,2.0,13.0,53,0.00,,,0.00,524.0,meteohub,2013-08-28 21:02:00,
2013-08-28 17:07:00,91.0,72.7,29.88,West,280,7.0,13.0,55,0.00,,,0.00,494.0,meteohub,2013-08-28 21:07:00,
2013-08-28 17:12:00,91.0,70.9,29.88,WSW,249,8.0,13.0,52,0.00,,,0.00,466.0,meteohub,2013-08-28 21:12:00,
2013-08-28 17:17:00,91.2,72.3,29.88,West,280,5.0,10.0,54,0.00,,,0.00,450.0,meteohub,2013-08-28 21:17:00,
2013-08-28 17:22:00,91.2,72.3,29.88,NW,304,8.0,10.0,54,0.00,,,0.00,441.0,meteohub,2013-08-28 21:22:00,
2013-08-28 17:27:00,91.2,71.6,29.88,West,278,3.0,10.0,53,0.00,,,0.00,417.0,meteohub,2013-08-28 21:27:00,
2013-08-28 17:32:00,91.0,71.6,29.88,WNW,300,7.0,10.0,53,0.00,,,0.00,411.0,meteohub,2013-08-28 21:32:00,
2013-08-28 17:37:00,91.2,70.5,29.88,WNW,292,7.0,13.0,51,0.00,,,0.00,397.0,meteohub,2013-08-28 21:37:00,
2013-08-28 17:43:00,91.2,72.3,29.88,West,262,4.0,13.0,54,0.00,,,0.00,383.0,meteohub,2013-08-28 21:43:00,
2013-08-28 17:48:00,91.0,71.6,29.88,WNW,294,5.0,13.0,53,0.00,,,0.00,357.0,meteohub,2013-08-28 21:48:00,
2013-08-28 17:53:00,90.9,71.4,29.88,West,264,6.0,13.0,53,0.00,,,0.00,336.0,meteohub,2013-08-28 21:53:00,
2013-08-28 17:58:00,90.9,70.2,29.88,WNW,284,2.0,13.0,51,0.00,,,0.00,329.0,meteohub,2013-08-28 21:58:00,
2013-08-28 18:03:00,90.7,70.7,29.87,West,278,3.0,13.0,52,0.00,,,0.00,316.0,meteohub,2013-08-28 22:03:00,
2013-08-28 18:08:00,90.7,71.2,29.87,West,278,5.0,13.0,53,0.00,,,0.00,299.0,meteohub,2013-08-28 22:08:00,
2013-08-28 18:13:00,90.3,70.9,29.87,West,265,7.0,13.0,53,0.00,,,0.00,287.0,meteohub,2013-08-28 22:13:00,
2013-08-28 18:18:00,90.1,70.7,29.86,WNW,284,5.0,14.0,53,0.00,,,0.00,276.0,meteohub,2013-08-28 22:18:00,
2013-08-28 18:23:00,90.0,71.1,29.86,WNW,288,2.0,14.0,54,0.00,,,0.00,258.0,meteohub,2013-08-28 22:23:00,
2013-08-28 18:28:00,90.0,70.5,29.86,WSW,249,2.0,14.0,53,0.00,,,0.00,248.0,meteohub,2013-08-28 22:28:00,
2013-08-28 18:33:00,89.6,72.9,29.86,SSW,210,5.0,13.0,58,0.00,,,0.00,230.0,meteohub,2013-08-28 22:33:00,
2013-08-28 18:39:00,89.1,72.9,29.86,South,188,2.0,12.0,59,0.00,,,0.00,216.0,meteohub,2013-08-28 22:39:00,
2013-08-28 18:44:00,88.7,73.0,29.86,WSW,248,3.0,13.0,60,0.00,,,0.00,199.0,meteohub,2013-08-28 22:44:00,
2013-08-28 18:49:00,88.3,72.7,29.86,West,277,8.0,13.0,60,0.00,,,0.00,183.0,meteohub,2013-08-28 22:49:00,
2013-08-28 18:54:00,88.2,73.0,29.86,WSW,238,4.0,13.0,61,0.00,,,0.00,169.0,meteohub,2013-08-28 22:54:00,
2013-08-28 18:59:00,87.8,73.2,29.86,WSW,249,3.0,11.0,62,0.00,,,0.00,156.0,meteohub,2013-08-28 22:59:00,
2013-08-28 19:04:00,87.6,73.0,29.86,SW,232,5.0,11.0,62,0.00,,,0.00,148.0,meteohub,2013-08-28 23:04:00,
2013-08-28 19:09:00,87.4,72.9,29.87,WNW,295,7.0,13.0,62,0.00,,,0.00,146.0,meteohub,2013-08-28 23:09:00,
2013-08-28 19:14:00,87.4,72.9,29.87,WSW,255,7.0,13.0,62,0.00,,,0.00,142.0,meteohub,2013-08-28 23:14:00,
2013-08-28 19:20:00,87.3,72.7,29.87,West,269,2.0,13.0,62,0.00,,,0.00,132.0,meteohub,2013-08-28 23:20:00,
2013-08-28 19:25:00,86.9,72.9,29.87,SSW,200,6.0,9.0,63,0.00,,,0.00,113.0,meteohub,2013-08-28 23:25:00,
2013-08-28 19:30:00,86.7,72.7,29.86,SSW,210,4.0,9.0,63,0.00,,,0.00,86.0,meteohub,2013-08-28 23:30:00,
2013-08-28 19:35:00,86.5,72.9,29.86,SW,223,7.0,9.0,64,0.00,,,0.00,69.0,meteohub,2013-08-28 23:35:00,
2013-08-28 19:40:00,86.2,72.5,29.87,South,170,5.0,9.0,64,0.00,,,0.00,47.0,meteohub,2013-08-28 23:40:00,
2013-08-28 19:45:00,86.0,72.3,29.87,West,261,2.0,10.0,64,0.00,,,0.00,35.0,meteohub,2013-08-28 23:45:00,
2013-08-28 19:50:00,85.6,72.5,29.87,SE,146,1.0,9.0,65,0.00,,,0.00,33.0,meteohub,2013-08-28 23:50:00,
2013-08-28 19:55:00,85.5,72.3,29.87,SW,236,3.0,8.0,65,0.00,,,0.00,18.0,meteohub,2013-08-28 23:55:00,
2013-08-28 20:00:00,85.1,72.0,29.87,WSW,254,2.0,8.0,65,0.00,,,0.00,11.0,meteohub,2013-08-29 00:00:00,
2013-08-28 20:05:00,84.7,72.1,29.87,West,260,2.0,8.0,66,0.00,,,0.00,5.0,meteohub,2013-08-29 00:05:00,
2013-08-28 20:11:00,84.6,72.0,29.87,WNW,298,5.0,8.0,66,0.00,,,0.00,0.0,meteohub,2013-08-29 00:11:00,
2013-08-28 20:16:00,84.4,71.8,29.87,WSW,248,2.0,13.0,66,0.00,,,0.00,0.0,meteohub,2013-08-29 00:16:00,
2013-08-28 20:21:00,84.0,72.0,29.87,NW,308,1.0,13.0,67,0.00,,,0.00,0.0,meteohub,2013-08-29 00:21:00,
2013-08-28 20:26:00,83.8,71.8,29.87,NW,308,2.0,11.0,67,0.00,,,0.00,0.0,meteohub,2013-08-29 00:26:00,
2013-08-28 20:31:00,83.7,71.6,29.88,West,281,0.0,11.0,67,0.00,,,0.00,0.0,meteohub,2013-08-29 00:31:00,
2013-08-28 20:36:00,83.5,71.4,29.88,West,261,4.0,9.0,67,0.00,,,0.00,0.0,meteohub,2013-08-29 00:36:00,
2013-08-28 20:41:00,83.1,71.1,29.88,WNW,288,3.0,9.0,67,0.00,,,0.00,0.0,meteohub,2013-08-29 00:41:00,
2013-08-28 20:46:00,83.1,71.4,29.88,NW,305,1.0,9.0,68,0.00,,,0.00,0.0,meteohub,2013-08-29 00:46:00,
2013-08-28 20:52:00,82.9,71.2,29.88,WNW,284,2.0,9.0,68,0.00,,,0.00,0.0,meteohub,2013-08-29 00:52:00,
2013-08-28 20:57:00,82.9,71.2,29.88,West,281,9.0,9.0,68,0.00,,,0.00,0.0,meteohub,2013-08-29 00:57:00,
2013-08-28 21:02:00,82.9,71.2,29.88,West,263,4.0,9.0,68,0.00,,,0.00,0.0,meteohub,2013-08-29 01:02:00,
2013-08-28 21:07:00,82.9,71.2,29.88,WNW,288,3.0,9.0,68,0.00,,,0.00,0.0,meteohub,2013-08-29 01:07:00,
2013-08-28 21:12:00,82.8,71.1,29.88,WSW,238,0.0,11.0,68,0.00,,,0.00,0.0,meteohub,2013-08-29 01:12:00,
2013-08-28 21:17:00,82.8,71.1,29.89,West,265,1.0,11.0,68,0.00,,,0.00,0.0,meteohub,2013-08-29 01:17:00,
2013-08-28 21:22:00,82.6,70.9,29.89,WSW,253,1.0,11.0,68,0.00,,,0.00,0.0,meteohub,2013-08-29 01:22:00,
2013-08-28 21:27:00,82.6,70.9,29.90,West,275,3.0,9.0,68,0.00,,,0.00,0.0,meteohub,2013-08-29 01:27:00,
2013-08-28 21:32:00,82.6,70.9,29.90,WNW,290,1.0,9.0,68,0.00,,,0.00,0.0,meteohub,2013-08-29 01:32:00,
2013-08-28 21:37:00,82.4,71.2,29.90,West,263,0.0,7.0,69,0.00,,,0.00,0.0,meteohub,2013-08-29 01:37:00,
2013-08-28 21:42:00,82.2,71.1,29.90,WNW,284,2.0,7.0,69,0.00,,,0.00,0.0,meteohub,2013-08-29 01:42:00,
2013-08-28 21:48:00,82.0,71.2,29.91,West,271,2.0,5.0,70,0.00,,,0.00,0.0,meteohub,2013-08-29 01:48:00,
2013-08-28 21:53:00,81.9,71.1,29.92,West,259,2.0,5.0,70,0.00,,,0.00,0.0,meteohub,2013-08-29 01:53:00,
2013-08-28 21:58:00,81.7,71.4,29.92,WNW,297,1.0,5.0,71,0.00,,,0.00,0.0,meteohub,2013-08-29 01:58:00,
2013-08-28 22:03:00,81.5,71.2,29.92,WNW,293,5.0,5.0,71,0.00,,,0.00,0.0,meteohub,2013-08-29 02:03:00,
2013-08-28 22:08:00,81.5,71.2,29.92,WNW,300,3.0,5.0,71,0.00,,,0.00,0.0,meteohub,2013-08-29 02:08:00,
2013-08-28 22:14:00,81.3,71.4,29.93,West,278,3.0,7.0,72,0.00,,,0.00,0.0,meteohub,2013-08-29 02:14:00,
2013-08-28 22:19:00,81.3,71.4,29.93,WSW,249,1.0,10.0,72,0.00,,,0.00,0.0,meteohub,2013-08-29 02:19:00,
2013-08-28 22:24:00,81.3,71.4,29.93,WNW,303,2.0,10.0,72,0.00,,,0.00,0.0,meteohub,2013-08-29 02:24:00,
2013-08-28 22:29:00,81.3,71.8,29.92,West,278,5.0,10.0,73,0.00,,,0.00,0.0,meteohub,2013-08-29 02:29:00,
2013-08-28 22:34:00,81.1,71.6,29.92,West,266,2.0,9.0,73,0.00,,,0.00,0.0,meteohub,2013-08-29 02:34:00,
2013-08-28 22:39:00,81.0,72.0,29.92,WSW,249,2.0,8.0,74,0.00,,,0.00,0.0,meteohub,2013-08-29 02:39:00,
2013-08-28 22:44:00,80.4,71.4,29.93,West,268,3.0,7.0,74,0.00,,,0.00,0.0,meteohub,2013-08-29 02:44:00,
2013-08-28 22:49:00,80.2,71.6,29.94,NW,319,4.0,7.0,75,0.00,,,0.00,0.0,meteohub,2013-08-29 02:49:00,
2013-08-28 22:54:00,79.9,71.6,29.94,WSW,258,3.0,7.0,76,0.00,,,0.00,0.0,meteohub,2013-08-29 02:54:00,
2013-08-28 22:59:00,79.5,71.6,29.94,NW,317,3.0,7.0,77,0.00,,,0.00,0.0,meteohub,2013-08-29 02:59:00,
2013-08-28 23:05:00,79.3,72.0,29.94,WNW,297,2.0,5.0,78,0.00,,,0.00,0.0,meteohub,2013-08-29 03:05:00,
2013-08-28 23:10:00,79.2,72.1,29.94,NW,310,1.0,5.0,79,0.00,,,0.00,0.0,meteohub,2013-08-29 03:10:00,
2013-08-28 23:15:00,79.0,73.0,29.94,NW,310,0.0,5.0,82,0.00,,,0.00,0.0,meteohub,2013-08-29 03:15:00,
2013-08-28 23:20:00,78.6,73.0,29.94,NW,310,0.0,2.0,83,0.00,,,0.00,0.0,meteohub,2013-08-29 03:20:00,
2013-08-28 23:25:00,78.3,72.7,29.94,North,357,2.0,2.0,83,0.00,,,0.00,0.0,meteohub,2013-08-29 03:25:00,
2013-08-28 23:30:00,77.9,72.7,29.94,NE,45,1.0,3.0,84,0.00,,,0.00,0.0,meteohub,2013-08-29 03:30:00,
2013-08-28 23:35:00,77.7,73.2,29.94,ESE,120,1.0,3.0,86,0.00,,,0.00,0.0,meteohub,2013-08-29 03:35:00,
2013-08-28 23:41:00,77.4,72.9,29.94,ESE,122,2.0,3.0,86,0.00,,,0.00,0.0,meteohub,2013-08-29 03:41:00,
2013-08-28 23:46:00,77.2,73.0,29.94,ESE,122,0.0,3.0,87,0.00,,,0.00,0.0,meteohub,2013-08-29 03:46:00,
2013-08-28 23:51:00,77.0,73.2,29.94,ESE,120,0.0,3.0,88,0.00,,,0.00,0.0,meteohub,2013-08-29 03:51:00,
2013-08-28 23:56:00,76.8,73.4,29.94,WSW,243,0.0,2.0,89,0.00,,,0.00,0.0,meteohub,2013-08-29 03:56:00,